Location: Cheyres
(46.8153°N, 6.7877°E)
Time: 11:57:27
(UTC+00:00)

Gbstr 26 Del rocket - Pass Details

Date: 20 September 2021
Orbit: 492 x 1263 km, 51.8° (Epoch: 18 October)

Event Time Altitude Azimuth Distance (km) Brightness Sun altitude
Exits shadow 01:31:00 55° 327° (NNW) 1,444 4.8 -34.9°
Maximum altitude 01:32:10 61° 2° (N) 1,366 4.8 -34.8°
Drops below altitude 10° 01:39:30 10° 82° (E) 2,969 7.0 -34.0°
Sets 01:42:05 0° 86° (E) 3,830 7.7 -33.7°
